• In Russia
  • List of Countries
  • For 7 days
  • Water Temperature
  • Satellite Maps
  • Weather Map
  • Weather Widgets
  • user-avatar
    Login

    Hourly Weather Sumgayit

    Today, 21 July, Friday

    Time Temperature Precipitation Wind Pressure Humidity
    00:00 +30°C° 0 mm 1 mps 734 mmHg 32%
    01:00 +30°C° 0 mm 1 mps 734 mmHg 33%
    02:00 +29°C° 0 mm 1 mps 734 mmHg 34%
    03:00 +29°C° 0 mm 1 mps 734 mmHg 35%
    04:00 +29°C° 0 mm 1 mps 735 mmHg 33%
    05:00 +30°C° 0 mm 1 mps 735 mmHg 32%
    06:00 +30°C° 0 mm 1 mps 735 mmHg 30%
    07:00 +32°C° 0 mm 1 mps 736 mmHg 28%
    08:00 +34°C° 0 mm 2 mps 736 mmHg 26%
    09:00 +36°C° 0 mm 2 mps 736 mmHg 23%
    10:00 +36°C° 0 mm 3 mps 736 mmHg 23%
    11:00 +37°C° 0 mm 4 mps 736 mmHg 23%
    12:00 +38°C° 0 mm 4 mps 737 mmHg 23%
    13:00 +39°C° 0 mm 5 mps 736 mmHg 23%
    14:00 +37°C° 0 mm 5 mps 736 mmHg 24%
    15:00 +38°C° 0 mm 6 mps 736 mmHg 24%
    16:00 +36°C° 0 mm 6 mps 736 mmHg 26%
    17:00 +36°C° 0 mm 6 mps 736 mmHg 28%
    18:00 +35°C° 0 mm 6 mps 736 mmHg 30%
    19:00 +34°C° 0 mm 5 mps 736 mmHg 33%
    20:00 +33°C° 0 mm 5 mps 736 mmHg 36%
    21:00 +32°C° 0 mm 5 mps 737 mmHg 39%
    22:00 +32°C° 0 mm 5 mps 737 mmHg 39%
    23:00 +30°C° 0 mm 5 mps 737 mmHg 39%

    Tomorrow, 22 July, Saturday

    Time Temperature Precipitation Wind Pressure Humidity
    00:00 +30°C° 0 mm 5 mps 737 mmHg 39%
    01:00 +30°C° 0 mm 5 mps 737 mmHg 40%
    02:00 +29°C° 0 mm 5 mps 737 mmHg 41%
    03:00 +29°C° 0 mm 5 mps 737 mmHg 42%
    04:00 +29°C° 0 mm 5 mps 737 mmHg 42%
    05:00 +29°C° 0 mm 4 mps 737 mmHg 42%
    06:00 +30°C° 0 mm 4 mps 737 mmHg 41%
    07:00 +32°C° 0 mm 5 mps 737 mmHg 38%
    08:00 +33°C° 0 mm 5 mps 738 mmHg 35%
    09:00 +35°C° 0 mm 5 mps 738 mmHg 31%
    10:00 +35°C° 0 mm 5 mps 738 mmHg 30%
    11:00 +36°C° 0 mm 5 mps 738 mmHg 29%
    12:00 +37°C° 0 mm 5 mps 737 mmHg 28%
    13:00 +37°C° 0 mm 5 mps 737 mmHg 28%
    14:00 +37°C° 0 mm 5 mps 737 mmHg 28%
    15:00 +37°C° 0 mm 5 mps 737 mmHg 28%
    16:00 +36°C° 0 mm 4 mps 736 mmHg 28%
    17:00 +36°C° 0 mm 4 mps 736 mmHg 29%
    18:00 +35°C° 0 mm 4 mps 736 mmHg 30%
    19:00 +34°C° 0 mm 3 mps 736 mmHg 32%
    20:00 +34°C° 0 mm 2 mps 736 mmHg 33%
    21:00 +32°C° 0 mm 2 mps 736 mmHg 35%
    22:00 +31°C° 0 mm 2 mps 736 mmHg 36%
    23:00 +31°C° 0 mm 2 mps 736 mmHg 37%

    Day after tomorrow, 23 July, Sunday

    Time Temperature Precipitation Wind Pressure Humidity
    00:00 +30°C° 0 mm 2 mps 736 mmHg 38%
    01:00 +29°C° 0 mm 2 mps 735 mmHg 39%
    02:00 +29°C° 0 mm 2 mps 735 mmHg 40%
    03:00 +28°C° 0 mm 1 mps 735 mmHg 41%
    04:00 +29°C° 0 mm 1 mps 735 mmHg 40%
    05:00 +29°C° 0 mm 1 mps 735 mmHg 39%
    06:00 +30°C° 0 mm 1 mps 735 mmHg 37%
    07:00 +31°C° 0 mm 1 mps 735 mmHg 33%
    08:00 +33°C° 0 mm 1 mps 735 mmHg 30%
    09:00 +34°C° 0 mm 1 mps 735 mmHg 26%
    10:00 +36°C° 0 mm 2 mps 735 mmHg 24%
    11:00 +37°C° 0 mm 3 mps 735 mmHg 21%
    12:00 +38°C° 0 mm 4 mps 734 mmHg 19%
    13:00 +38°C° 0 mm 4 mps 734 mmHg 19%
    14:00 +40°C° 0 mm 4 mps 734 mmHg 19%
    15:00 +40°C° 0 mm 5 mps 733 mmHg 19%
    16:00 +38°C° 0 mm 4 mps 733 mmHg 20%
    17:00 +37°C° 0 mm 4 mps 733 mmHg 22%
    18:00 +37°C° 0 mm 4 mps 733 mmHg 23%
    19:00 +36°C° 0 mm 3 mps 733 mmHg 25%
    20:00 +35°C° 0 mm 2 mps 733 mmHg 27%
    21:00 +32°C° 0 mm 2 mps 734 mmHg 30%
    22:00 +32°C° 0 mm 2 mps 733 mmHg 32%
    23:00 +31°C° 0 mm 3 mps 733 mmHg 34%

    24 July, Monday

    Time Temperature Precipitation Wind Pressure Humidity
    00:00 +30°C° 0 mm 3 mps 733 mmHg 37%
    01:00 +30°C° 0 mm 4 mps 733 mmHg 38%
    02:00 +29°C° 0 mm 4 mps 733 mmHg 39%
    03:00 +29°C° 0 mm 5 mps 733 mmHg 40%
    04:00 +29°C° 0 mm 5 mps 733 mmHg 40%
    05:00 +29°C° 0 mm 5 mps 734 mmHg 39%
    06:00 +30°C° 0 mm 6 mps 734 mmHg 39%
    07:00 +32°C° 0 mm 6 mps 734 mmHg 38%
    08:00 +33°C° 0 mm 7 mps 734 mmHg 37%
    09:00 +34°C° 0 mm 8 mps 734 mmHg 36%
    10:00 +34°C° 0 mm 8 mps 734 mmHg 36%
    11:00 +35°C° 0 mm 8 mps 734 mmHg 37%
    12:00 +35°C° 0 mm 9 mps 734 mmHg 37%
    13:00 +35°C° 0 mm 9 mps 734 mmHg 38%
    14:00 +35°C° 0 mm 9 mps 733 mmHg 38%
    15:00 +36°C° 0 mm 10 mps 733 mmHg 39%
    16:00 +34°C° 0 mm 10 mps 733 mmHg 40%
    17:00 +34°C° 0 mm 10 mps 733 mmHg 42%
    18:00 +33°C° 0 mm 10 mps 733 mmHg 43%
    19:00 +32°C° 0 mm 10 mps 733 mmHg 44%
    20:00 +32°C° 0 mm 10 mps 734 mmHg 46%
    21:00 +31°C° 0 mm 9 mps 734 mmHg 47%
    22:00 +31°C° 0 mm 9 mps 734 mmHg 48%
    23:00 +31°C° 0 mm 9 mps 734 mmHg 49%

    25 July, Tuesday

    Time Temperature Precipitation Wind Pressure Humidity
    00:00 +31°C° 0 mm 8 mps 734 mmHg 49%
    01:00 +29°C° 0 mm 8 mps 734 mmHg 50%
    02:00 +29°C° 0 mm 8 mps 734 mmHg 51%
    03:00 +29°C° 0 mm 7 mps 734 mmHg 52%
    04:00 +29°C° 0 mm 7 mps 734 mmHg 51%
    05:00 +29°C° 0 mm 7 mps 734 mmHg 51%
    06:00 +29°C° 0 mm 7 mps 734 mmHg 50%
    07:00 +30°C° 0 mm 7 mps 734 mmHg 45%
    08:00 +32°C° 0 mm 8 mps 735 mmHg 41%
    09:00 +33°C° 0 mm 8 mps 735 mmHg 36%
    10:00 +34°C° 0 mm 8 mps 734 mmHg 35%
    11:00 +34°C° 0 mm 8 mps 734 mmHg 34%
    12:00 +35°C° 0 mm 8 mps 734 mmHg 32%
    13:00 +35°C° 0 mm 8 mps 734 mmHg 33%
    14:00 +35°C° 0 mm 8 mps 733 mmHg 34%
    15:00 +35°C° 0 mm 8 mps 733 mmHg 35%
    16:00 +34°C° 0 mm 8 mps 733 mmHg 36%
    17:00 +33°C° 0 mm 8 mps 733 mmHg 38%
    18:00 +32°C° 0 mm 8 mps 733 mmHg 40%
    19:00 +32°C° 0 mm 7 mps 733 mmHg 41%
    20:00 +30°C° 0 mm 7 mps 734 mmHg 42%
    21:00 +30°C° 0 mm 7 mps 734 mmHg 43%
    22:00 +29°C° 0 mm 6 mps 734 mmHg 43%
    23:00 +29°C° 0 mm 6 mps 734 mmHg 43%

    26 July, Wednesday

    Time Temperature Precipitation Wind Pressure Humidity
    00:00 +29°C° 0 mm 5 mps 734 mmHg 43%
    01:00 +29°C° 0 mm 5 mps 734 mmHg 45%
    02:00 +28°C° 0 mm 5 mps 734 mmHg 46%
    03:00 +28°C° 0 mm 5 mps 734 mmHg 48%
    04:00 +28°C° 0 mm 5 mps 734 mmHg 47%
    05:00 +28°C° 0 mm 5 mps 734 mmHg 47%
    06:00 +28°C° 0 mm 5 mps 734 mmHg 46%
    07:00 +30°C° 0 mm 5 mps 734 mmHg 43%
    08:00 +32°C° 0 mm 6 mps 734 mmHg 41%
    09:00 +33°C° 0 mm 6 mps 735 mmHg 38%
    10:00 +34°C° 0 mm 6 mps 734 mmHg 37%
    11:00 +34°C° 0 mm 6 mps 734 mmHg 36%
    12:00 +35°C° 0 mm 7 mps 734 mmHg 35%
    13:00 +35°C° 0 mm 7 mps 734 mmHg 35%
    14:00 +35°C° 0 mm 7 mps 734 mmHg 35%
    15:00 +35°C° 0 mm 8 mps 734 mmHg 36%
    16:00 +34°C° 0 mm 8 mps 734 mmHg 37%
    17:00 +34°C° 0 mm 8 mps 734 mmHg 38%
    18:00 +33°C° 0 mm 8 mps 734 mmHg 40%
    19:00 +32°C° 0 mm 8 mps 735 mmHg 41%
    20:00 +32°C° 0 mm 7 mps 735 mmHg 43%
    21:00 +30°C° 0 mm 7 mps 735 mmHg 45%
    22:00 +30°C° 0 mm 7 mps 735 mmHg 45%
    23:00 +29°C° 0 mm 6 mps 735 mmHg 46%
    Show more